NOAA 16 DEB, 42426

Orbit data source: Space-Track

NOAA 16 DEB, 42426 is space debris in SSO originally from a launch on Thu, 21 Sep 2000 UTC launched from the Air Force Western Test Range (AFWTR). Debris objects in space refer to the collection of defunct objects orbiting the Earth. Examples of debris include non-operational satellites, rocket bodies, and fragments generated from explosions, collisions, or faulty payload assembly.

Loading next visibility...
Identifier
42426, 2000-055TW
Orbit
SSO
Country
Flag of USUS
Related business
Manufacturer
Unknown
Mission
Spacecraft
Bus & Motor
Unknown
Mass
Unknown
Launch date (UTC)
2000-09-21 (25 years ago)
Launch vehicle
Unknown
Launch site
Air Force Western Test Range (AFWTR)
Object type
Payload
Rocket body
Debris
Shape & HBR
Unknown
Radar Cross Section
Small (<0.1 m²)

Expand to show TLE details & history
Last TLE update: 3 days ago

TLE from 3 days ago
0 NOAA 16 DEB
1 42426U 00055TW  25258.29508947  .00005322  00000-0  23592-2 0  9999
2 42426  98.6020 282.3822 0012736 218.4648 141.5624 14.23430337469129
Epoch: 2025-09-15T07:04Z
TLE epoch observation values (Epoch: 2025-09-15T07:04:55.73Z)
Latitude
Longitude
-178.35181°
Altitude
823.878 km
Speed
7.437 km/s
True Right ascension
18h 49m 31s
True Declination
0° 00' 00"
Sunlit
Object was in daylight at epoch
Visualization orbit readout
Latitude
Unknown
Longitude
Unknown
Altitude
Unknown
Speed
Unknown
Apparent Right ascension
Unknown
Apparent Declination
Unknown
Sunlit
N/A
Visualization observer readout
Local Sidereal Time
10:53:17
Azimuth
Unknown
Elevation
Unknown
Doppler factor
Unknown
Orbital elements
Apogee altitude
820.08 km
Perigee altitude
801.768 km
Semi-major axis
7,189.061 km
Eccentricity
0.00127
Inclination
98.602°
RAAN
282.3822°
Arg. of periapsis
218.4648°
True anomaly
141.65301°
Mean anomaly
141.5624°
Eccentric anomaly
141.60772°
Mean motion
3.5607 °/min
Orbital period
101.1 mins
BSTAR
0.0023592
Loading maneuver chart data...
Computing Atmospheric mass density...
Loading historical data...
Loading historical data...
Loading historical data...
Loading historical data...
Loading historical data...
Loading historical data...
Loading historical data...

Documentation

Showing up to 5 results
|